Location: Arroyo Retuerta
(40.5469°N, 4.3534°W)
Time: 10:40:17
(UTC+00:00)

X-37B - Visible Passes

Search period start: 30 July 2021 00:00
Search period end: 09 August 2021 00:00
Orbit: 383 x 392 km, 45.0° (Epoch: 01 July)

Date Brightness Start Highest point End Pass type
(mag) Time Alt. Az. Time Alt. Az. Time Alt. Az.
30 Jul 2.9 03:50:29 12° S 03:51:55 15° SE 03:53:54 10° ESE visible
31 Jul 1.1 04:27:02 12° SW 04:29:52 50° SSE 04:33:00 10° ENE visible
01 Aug 1.9 03:31:15 27° SSE 03:31:37 28° SE 03:34:25 10° E visible
02 Aug 0.5 04:07:42 21° WSW 04:09:43 89° S 04:12:56 10° ENE visible
03 Aug 1.3 03:11:51 46° ESE 03:11:51 46° ESE 03:14:30 10° ENE visible
03 Aug 1.6 04:45:01 10° W 04:48:06 43° NNW 04:51:11 10° ENE visible
04 Aug 1.0 03:48:15 29° W 03:49:38 58° NNW 03:52:48 10° ENE visible
05 Aug 2.0 02:52:22 37° ENE 02:52:22 37° ENE 02:54:27 10° ENE visible
05 Aug 1.9 04:25:07 10° WNW 04:28:06 36° N 04:31:06 10° ENE visible
06 Aug 1.6 03:28:45 33° NW 03:29:37 42° NNW 03:32:41 10° ENE visible
07 Aug 3.0 02:32:54 23° NE 02:32:54 23° NE 02:34:19 10° ENE visible
07 Aug 2.1 04:05:11 10° WNW 04:08:08 34° N 04:11:07 10° ENE visible
08 Aug 1.9 03:09:22 35° NNW 03:09:38 36° N 03:12:37 10° ENE visible
08 Aug 1.7 04:43:33 10° WNW 04:46:39 45° NNE 04:49:45 10° E visible
